Погода в Ламенском

Россия / Тюменская область     56°25′50″N   67°59′18″E
темп.,
°C
ветер,
м/с
пор.,
м/с
влажн.,
%
обл.,
%
осадки,
мм/ч
давл.,
гПа
погр.,
м
12 апреля, пн
пн1223:00+2юз5148169 0.0 1035292
02:00+2юз5148046 0.0 1033277
05:00+2юз4128875 0.0 1033247
08:00+3зюз41096100 0.0 1032250
11:00+5з4899100 0.1 1032265
14:00+6з3899100 0.1 1032290
17:00+8зсз2587100 0.1 1033172
20:00+5сз3688100 0.0 103597
13 апреля, вт
вт1323:00+3сз22905 0.0 103724
02:00+2ссз37760 0.0 103896
05:000сз22770 0.0 104028
08:00+4зсз35740 0.0 1041189
11:00+8зсз46580 0.0 1041702
14:00+10зсз4650100 0.0 1040981
17:00+10з47530 0.0 1039856
20:00+6зюз377132 0.0 1038114
14 апреля, ср
ср1423:00+4зюз310815 0.0 1037198
02:00+4зюз41383100 0.0 1035289
05:00+4зюз5148499 0.0 1034364
08:00+6зюз61479100 0.0 1032465
11:00+11з6117490 0.0 1030566
14:00+15з695940 0.0 1029913
17:00+16з586192 0.0 1028942
20:00+11з388111 0.0 1027144
15 апреля, чт
чт1523:00+10з38905 0.0 1027132
02:00+9зюз36925 0.0 1026109
05:00+8з35945 0.0 102688
08:00+11з37825 0.0 1025226
11:00+15з466522 0.0 1024890
14:00+18з574733 0.0 10221311
17:00+18з58465 0.0 10201286
20:00+13зюз38735 0.0 1019140
16 апреля, пт
пт1623:00+11зюз39855 0.0 1017168
02:00+9зюз3108729 0.0 1016188
05:00+7зюз368979 0.0 1015101
08:00+10з3777100 0.0 1014194
11:00+14з4653100 0.0 1012623
14:00+16сз5554100 0.0 10111390
17:00+9ссв788199 0.0 1012514
20:00+2св71188100 0.3 1015602